PRIVATE WETTERSTATION BILLIGHEIM-ALLFELD                       ZURCK
Wetterdaten: Mittwoch, 25.10.2017
Datum Zeit Temp. A. Temp. A. min Temp. A. max Feuchte A. Luftdruck Regen Wind Richtung Richtung Sonnenschein ET Solar Taupunkt Windchill Windben Empfang
25.10.2017 00:00 12,3 C 12,2 C 12,3 C 90 % 1024,2 hPa 0,0 l/m 4,8 km/h (1 Bft) S 180 0 min 0,000 mm 0 W/m 10,7 C 12,3 C 11,3 km/h (2 Bft) 100 %
25.10.2017 00:10 12,3 C 12,3 C 12,3 C 90 % 1024,2 hPa 0,0 l/m 4,8 km/h (1 Bft) S 180 0 min 0,000 mm 0 W/m 10,7 C 12,3 C 14,5 km/h (3 Bft) 100 %
25.10.2017 00:20 12,4 C 12,3 C 12,4 C 90 % 1024,1 hPa 0,0 l/m 4,8 km/h (1 Bft) SW 225 0 min 0,000 mm 0 W/m 10,8 C 12,4 C 9,7 km/h (2 Bft) 91 %
25.10.2017 00:30 12,5 C 12,4 C 12,5 C 90 % 1024,1 hPa 0,0 l/m 6,4 km/h (2 Bft) SW 225 0 min 0,000 mm 0 W/m 10,9 C 12,5 C 12,9 km/h (3 Bft) 100 %
25.10.2017 00:40 12,6 C 12,5 C 12,6 C 90 % 1024,0 hPa 0,0 l/m 4,8 km/h (1 Bft) SW 225 0 min 0,000 mm 0 W/m 11,0 C 12,6 C 12,9 km/h (3 Bft) 100 %
25.10.2017 00:50 12,6 C 12,6 C 12,6 C 90 % 1023,9 hPa 0,0 l/m 9,7 km/h (2 Bft) SW 225 0 min 0,000 mm 0 W/m 11,0 C 10,6 C 19,3 km/h (3 Bft) 99 %
25.10.2017 01:00 12,6 C 12,6 C 12,6 C 90 % 1023,9 hPa 0,0 l/m 4,8 km/h (1 Bft) SW 225 0 min 0,000 mm 0 W/m 11,0 C 12,6 C 9,7 km/h (2 Bft) 100 %
25.10.2017 01:10 12,6 C 12,6 C 12,6 C 90 % 1024,0 hPa 0,0 l/m 4,8 km/h (1 Bft) SW 225 0 min 0,000 mm 0 W/m 11,0 C 12,6 C 8,0 km/h (2 Bft) 100 %
25.10.2017 01:20 12,6 C 12,6 C 12,6 C 90 % 1023,9 hPa 0,0 l/m 3,2 km/h (1 Bft) S-SW 202 0 min 0,000 mm 0 W/m 11,0 C 12,6 C 8,0 km/h (2 Bft) 100 %
25.10.2017 01:30 12,5 C 12,5 C 12,6 C 90 % 1023,8 hPa 0,0 l/m 1,6 km/h (1 Bft) S-SW 202 0 min 0,000 mm 0 W/m 10,9 C 12,5 C 4,8 km/h (1 Bft) 100 %
25.10.2017 01:40 12,4 C 12,4 C 12,5 C 90 % 1023,8 hPa 0,0 l/m 1,6 km/h (1 Bft) S-SW 202 0 min 0,000 mm 0 W/m 10,8 C 12,4 C 11,3 km/h (2 Bft) 100 %
25.10.2017 01:50 12,4 C 12,4 C 12,4 C 90 % 1023,7 hPa 0,0 l/m 1,6 km/h (1 Bft) S-SW 202 0 min 0,000 mm 0 W/m 10,8 C 12,4 C 6,4 km/h (2 Bft) 100 %
25.10.2017 02:00 12,4 C 12,4 C 12,4 C 90 % 1023,6 hPa 0,0 l/m 3,2 km/h (1 Bft) S 180 0 min 0,000 mm 0 W/m 10,8 C 12,4 C 8,0 km/h (2 Bft) 100 %
25.10.2017 02:10 12,4 C 12,4 C 12,4 C 90 % 1023,6 hPa 0,0 l/m 4,8 km/h (1 Bft) S 180 0 min 0,000 mm 0 W/m 10,8 C 12,4 C 9,7 km/h (2 Bft) 100 %
25.10.2017 02:20 12,3 C 12,3 C 12,4 C 90 % 1023,6 hPa 0,0 l/m 4,8 km/h (1 Bft) S 180 0 min 0,000 mm 0 W/m 10,7 C 12,3 C 11,3 km/h (2 Bft) 100 %
25.10.2017 02:30 12,2 C 12,2 C 12,3 C 90 % 1023,5 hPa 0,0 l/m 4,8 km/h (1 Bft) S 180 0 min 0,000 mm 0 W/m 10,6 C 12,2 C 9,7 km/h (2 Bft) 100 %
25.10.2017 02:40 12,1 C 12,1 C 12,2 C 90 % 1023,5 hPa 0,0 l/m 3,2 km/h (1 Bft) S-SO 157 0 min 0,000 mm 0 W/m 10,5 C 12,1 C 11,3 km/h (2 Bft) 100 %
25.10.2017 02:50 12,0 C 12,0 C 12,1 C 90 % 1023,4 hPa 0,0 l/m 4,8 km/h (1 Bft) S-SO 157 0 min 0,000 mm 0 W/m 10,4 C 12,0 C 9,7 km/h (2 Bft) 100 %
25.10.2017 03:00 11,9 C 11,9 C 12,0 C 90 % 1023,3 hPa 0,0 l/m 1,6 km/h (1 Bft) S 180 0 min 0,000 mm 0 W/m 10,3 C 11,9 C 8,0 km/h (2 Bft) 100 %
25.10.2017 03:10 11,9 C 11,9 C 11,9 C 90 % 1023,4 hPa 0,0 l/m 3,2 km/h (1 Bft) S 180 0 min 0,000 mm 0 W/m 10,3 C 11,9 C 9,7 km/h (2 Bft) 100 %
25.10.2017 03:20 11,9 C 11,9 C 11,9 C 90 % 1023,4 hPa 0,0 l/m 3,2 km/h (1 Bft) S 180 0 min 0,000 mm 0 W/m 10,3 C 11,9 C 8,0 km/h (2 Bft) 100 %
25.10.2017 03:30 11,9 C 11,9 C 12,0 C 90 % 1023,4 hPa 0,0 l/m 3,2 km/h (1 Bft) S-SO 157 0 min 0,000 mm 0 W/m 10,3 C 11,9 C 8,0 km/h (2 Bft) 100 %
25.10.2017 03:40 12,0 C 11,9 C 12,0 C 90 % 1023,4 hPa 0,0 l/m 4,8 km/h (1 Bft) S 180 0 min 0,000 mm 0 W/m 10,4 C 12,0 C 14,5 km/h (3 Bft) 100 %
25.10.2017 03:50 12,0 C 12,0 C 12,0 C 90 % 1023,3 hPa 0,0 l/m 6,4 km/h (2 Bft) S-SW 202 0 min 0,000 mm 0 W/m 10,4 C 12,0 C 16,1 km/h (3 Bft) 100 %
25.10.2017 04:00 12,1 C 12,0 C 12,1 C 90 % 1023,3 hPa 0,0 l/m 6,4 km/h (2 Bft) S-SW 202 0 min 0,000 mm 0 W/m 10,5 C 12,1 C 16,1 km/h (3 Bft) 100 %
25.10.2017 04:10 12,1 C 12,0 C 12,1 C 90 % 1023,2 hPa 0,0 l/m 4,8 km/h (1 Bft) S-SW 202 0 min 0,000 mm 0 W/m 10,5 C 12,1 C 11,3 km/h (2 Bft) 100 %
25.10.2017 04:20 12,0 C 12,0 C 12,1 C 90 % 1023,3 hPa 0,2 l/m 4,8 km/h (1 Bft) S-SW 202 0 min 0,000 mm 0 W/m 10,4 C 12,0 C 9,7 km/h (2 Bft) 94 %
25.10.2017 04:30 12,0 C 12,0 C 12,0 C 90 % 1023,2 hPa 0,0 l/m 4,8 km/h (1 Bft) S-SW 202 0 min 0,000 mm 0 W/m 10,4 C 12,0 C 9,7 km/h (2 Bft) 96 %
25.10.2017 04:40 11,9 C 11,9 C 12,0 C 90 % 1023,0 hPa 0,0 l/m 4,8 km/h (1 Bft) S-SW 202 0 min 0,000 mm 0 W/m 10,3 C 11,9 C 11,3 km/h (2 Bft) 100 %
25.10.2017 04:50 11,9 C 11,9 C 12,0 C 90 % 1023,1 hPa 0,0 l/m 3,2 km/h (1 Bft) S-SW 202 0 min 0,000 mm 0 W/m 10,3 C 11,9 C 11,3 km/h (2 Bft) 99 %
25.10.2017 05:00 11,9 C 11,9 C 11,9 C 90 % 1023,0 hPa 0,0 l/m 3,2 km/h (1 Bft) S 180 0 min 0,000 mm 0 W/m 10,3 C 11,9 C 9,7 km/h (2 Bft) 100 %
25.10.2017 05:10 11,8 C 11,8 C 11,9 C 90 % 1023,1 hPa 0,0 l/m 3,2 km/h (1 Bft) S 180 0 min 0,000 mm 0 W/m 10,2 C 11,8 C 9,7 km/h (2 Bft) 100 %
25.10.2017 05:20 11,9 C 11,8 C 11,9 C 90 % 1022,9 hPa 0,0 l/m 3,2 km/h (1 Bft) S 180 0 min 0,000 mm 0 W/m 10,3 C 11,9 C 9,7 km/h (2 Bft) 100 %
25.10.2017 05:30 11,9 C 11,8 C 11,9 C 90 % 1022,9 hPa 0,0 l/m 3,2 km/h (1 Bft) S-SO 157 0 min 0,000 mm 0 W/m 10,3 C 11,9 C 8,0 km/h (2 Bft) 100 %
25.10.2017 05:40 11,9 C 11,9 C 11,9 C 90 % 1022,8 hPa 0,0 l/m 3,2 km/h (1 Bft) S 180 0 min 0,000 mm 0 W/m 10,3 C 11,9 C 9,7 km/h (2 Bft) 100 %
25.10.2017 05:50 11,9 C 11,9 C 11,9 C 90 % 1022,9 hPa 0,0 l/m 4,8 km/h (1 Bft) S 180 0 min 0,000 mm 0 W/m 10,3 C 11,9 C 12,9 km/h (3 Bft) 100 %
25.10.2017 06:00 11,9 C 11,9 C 11,9 C 90 % 1022,9 hPa 0,0 l/m 3,2 km/h (1 Bft) S-SO 157 0 min 0,000 mm 0 W/m 10,3 C 11,9 C 11,3 km/h (2 Bft) 100 %
25.10.2017 06:10 11,9 C 11,9 C 11,9 C 90 % 1022,8 hPa 0,2 l/m 3,2 km/h (1 Bft) S 180 0 min 0,000 mm 0 W/m 10,3 C 11,9 C 8,0 km/h (2 Bft) 100 %
25.10.2017 06:20 11,9 C 11,9 C 11,9 C 90 % 1022,8 hPa 0,0 l/m 1,6 km/h (1 Bft) S-SO 157 0 min 0,000 mm 0 W/m 10,3 C 11,9 C 8,0 km/h (2 Bft) 100 %
25.10.2017 06:30 11,9 C 11,9 C 11,9 C 90 % 1022,8 hPa 0,0 l/m 3,2 km/h (1 Bft) S-SW 202 0 min 0,000 mm 0 W/m 10,3 C 11,9 C 8,0 km/h (2 Bft) 100 %
25.10.2017 06:40 11,9 C 11,9 C 11,9 C 90 % 1022,7 hPa 0,0 l/m 3,2 km/h (1 Bft) S-SO 157 0 min 0,000 mm 0 W/m 10,3 C 11,9 C 6,4 km/h (2 Bft) 100 %
25.10.2017 06:50 11,9 C 11,9 C 11,9 C 90 % 1022,7 hPa 0,0 l/m 3,2 km/h (1 Bft) S-SO 157 0 min 0,000 mm 0 W/m 10,3 C 11,9 C 8,0 km/h (2 Bft) 100 %
25.10.2017 07:00 11,8 C 11,8 C 11,9 C 91 % 1022,7 hPa 0,0 l/m 1,6 km/h (1 Bft) S 180 0 min 0,000 mm 0 W/m 10,4 C 11,8 C 8,0 km/h (2 Bft) 100 %
25.10.2017 07:10 11,9 C 11,8 C 11,9 C 91 % 1022,6 hPa 0,0 l/m 1,6 km/h (1 Bft) S-SO 157 0 min 0,000 mm 0 W/m 10,5 C 11,9 C 8,0 km/h (2 Bft) 100 %
25.10.2017 07:20 11,9 C 11,8 C 11,9 C 91 % 1022,7 hPa 0,0 l/m 0,0 km/h (0 Bft) S-SO 157 0 min 0,000 mm 0 W/m 10,5 C 11,9 C 3,2 km/h (1 Bft) 100 %
25.10.2017 07:30 11,8 C 11,8 C 11,9 C 91 % 1022,7 hPa 0,0 l/m 0,0 km/h (0 Bft) N 0 0 min 0,000 mm 0 W/m 10,4 C 11,8 C 0,0 km/h (0 Bft) 100 %
25.10.2017 07:40 11,8 C 11,8 C 11,9 C 91 % 1022,7 hPa 0,0 l/m 0,0 km/h (0 Bft) S 180 0 min 0,000 mm 0 W/m 10,4 C 11,8 C 3,2 km/h (1 Bft) 100 %
25.10.2017 07:50 11,8 C 11,8 C 11,9 C 91 % 1022,7 hPa 0,0 l/m 0,0 km/h (0 Bft) N 0 0 min 0,000 mm 0 W/m 10,4 C 11,8 C 0,0 km/h (0 Bft) 100 %
25.10.2017 08:00 11,9 C 11,8 C 11,9 C 91 % 1022,7 hPa 0,0 l/m 0,0 km/h (0 Bft) N 0 0 min 0,000 mm 0 W/m 10,5 C 11,9 C 0,0 km/h (0 Bft) 100 %
25.10.2017 08:10 11,9 C 11,9 C 11,9 C 91 % 1022,8 hPa 0,0 l/m 1,6 km/h (1 Bft) S-SO 157 0 min 0,000 mm 5 W/m 10,5 C 11,9 C 4,8 km/h (1 Bft) 100 %
25.10.2017 08:20 11,8 C 11,8 C 11,9 C 91 % 1022,7 hPa 0,0 l/m 0,0 km/h (0 Bft) S-SO 157 0 min 0,000 mm 11 W/m 10,4 C 11,8 C 3,2 km/h (1 Bft) 90 %
25.10.2017 08:30 11,8 C 11,8 C 11,9 C 91 % 1022,9 hPa 0,0 l/m 0,0 km/h (0 Bft) N 0 0 min 0,000 mm 14 W/m 10,4 C 11,8 C 0,0 km/h (0 Bft) 100 %
25.10.2017 08:40 11,8 C 11,8 C 11,8 C 91 % 1022,9 hPa 0,0 l/m 0,0 km/h (0 Bft) N 0 0 min 0,000 mm 19 W/m 10,4 C 11,8 C 0,0 km/h (0 Bft) 100 %
25.10.2017 08:50 11,9 C 11,8 C 11,9 C 91 % 1022,9 hPa 0,0 l/m 0,0 km/h (0 Bft) S-SO 157 0 min 0,000 mm 26 W/m 10,5 C 11,9 C 1,6 km/h (1 Bft) 100 %
25.10.2017 09:00 11,9 C 11,9 C 11,9 C 91 % 1023,0 hPa 0,0 l/m 1,6 km/h (1 Bft) S-SO 157 0 min 0,000 mm 28 W/m 10,5 C 11,9 C 4,8 km/h (1 Bft) 100 %
25.10.2017 09:10 11,9 C 11,9 C 11,9 C 91 % 1023,0 hPa 0,0 l/m 0,0 km/h (0 Bft) N 0 0 min 0,000 mm 30 W/m 10,5 C 11,9 C 0,0 km/h (0 Bft) 100 %
25.10.2017 09:20 12,0 C 11,9 C 12,0 C 91 % 1023,0 hPa 0,0 l/m 0,0 km/h (0 Bft) S-SO 157 0 min 0,000 mm 65 W/m 10,6 C 12,0 C 4,8 km/h (1 Bft) 100 %
25.10.2017 09:30 12,1 C 12,0 C 12,1 C 91 % 1023,1 hPa 0,0 l/m 3,2 km/h (1 Bft) S-SW 202 0 min 0,000 mm 72 W/m 10,7 C 12,1 C 9,7 km/h (2 Bft) 100 %
25.10.2017 09:40 12,1 C 12,1 C 12,1 C 90 % 1023,4 hPa 0,0 l/m 1,6 km/h (1 Bft) S-SW 202 0 min 0,000 mm 76 W/m 10,5 C 12,1 C 8,0 km/h (2 Bft) 100 %
25.10.2017 09:50 12,1 C 12,1 C 12,2 C 90 % 1023,3 hPa 0,0 l/m 3,2 km/h (1 Bft) S 180 0 min 0,000 mm 62 W/m 10,5 C 12,1 C 8,0 km/h (2 Bft) 100 %
25.10.2017 10:00 12,0 C 12,0 C 12,1 C 90 % 1023,4 hPa 0,0 l/m 1,6 km/h (1 Bft) S-SO 157 0 min 0,025 mm 72 W/m 10,4 C 12,0 C 6,4 km/h (2 Bft) 100 %
25.10.2017 10:10 12,1 C 12,0 C 12,1 C 90 % 1023,5 hPa 0,0 l/m 4,8 km/h (1 Bft) S-SO 157 0 min 0,000 mm 97 W/m 10,5 C 12,1 C 8,0 km/h (2 Bft) 100 %
25.10.2017 10:20 12,2 C 12,1 C 12,2 C 90 % 1023,5 hPa 0,0 l/m 0,0 km/h (0 Bft) S-SO 157 0 min 0,000 mm 104 W/m 10,6 C 12,2 C 4,8 km/h (1 Bft) 100 %
25.10.2017 10:30 12,4 C 12,2 C 12,4 C 91 % 1023,4 hPa 0,0 l/m 1,6 km/h (1 Bft) S-SW 202 0 min 0,000 mm 118 W/m 11,0 C 12,4 C 8,0 km/h (2 Bft) 100 %
25.10.2017 10:40 12,5 C 12,2 C 12,5 C 90 % 1023,1 hPa 0,0 l/m 1,4 km/h (1 Bft) S-SO 165 0 min 0,000 mm 139 W/m 10,9 C 12,5 C 11,3 km/h (2 Bft) 98 %
25.10.2017 10:50 12,6 C 12,5 C 12,6 C 91 % 1023,1 hPa 0,0 l/m 4,2 km/h (1 Bft) S-SW 213 10 min 0,000 mm 163 W/m 11,2 C 12,6 C 14,5 km/h (3 Bft) 100 %
25.10.2017 11:00 12,9 C 12,6 C 12,9 C 90 % 1023,2 hPa 0,0 l/m 1,3 km/h (1 Bft) S-SW 211 10 min 0,000 mm 181 W/m 11,3 C 12,9 C 9,7 km/h (2 Bft) 99 %
25.10.2017 11:10 13,1 C 12,9 C 13,1 C 90 % 1023,4 hPa 0,0 l/m 1,1 km/h (1 Bft) SW 214 10 min 0,077 mm 171 W/m 11,5 C 13,1 C 8,0 km/h (2 Bft) 100 %
25.10.2017 11:20 13,1 C 13,0 C 13,2 C 90 % 1023,4 hPa 0,0 l/m 1,0 km/h (0 Bft) SW 225 0 min 0,000 mm 146 W/m 11,5 C 13,1 C 11,3 km/h (2 Bft) 100 %
25.10.2017 11:30 12,9 C 12,9 C 13,1 C 90 % 1023,3 hPa 0,0 l/m 1,5 km/h (1 Bft) SW 236 10 min 0,000 mm 171 W/m 11,3 C 12,9 C 9,7 km/h (2 Bft) 100 %
25.10.2017 11:40 13,4 C 12,9 C 13,4 C 90 % 1023,2 hPa 0,0 l/m 1,4 km/h (1 Bft) SW 216 10 min 0,000 mm 237 W/m 11,8 C 13,4 C 14,5 km/h (3 Bft) 100 %
25.10.2017 11:50 14,0 C 13,4 C 14,0 C 90 % 1023,4 hPa 0,0 l/m 3,2 km/h (1 Bft) S 186 10 min 0,000 mm 304 W/m 12,4 C 14,0 C 16,1 km/h (3 Bft) 100 %
25.10.2017 12:00 14,2 C 14,0 C 14,2 C 90 % 1023,5 hPa 0,0 l/m 7,9 km/h (2 Bft) S-SW 202 10 min 0,000 mm 262 W/m 12,6 C 13,3 C 22,5 km/h (4 Bft) 100 %
25.10.2017 12:10 14,2 C 14,2 C 14,2 C 89 % 1023,4 hPa 0,0 l/m 8,6 km/h (2 Bft) SW 236 10 min 0,127 mm 269 W/m 12,4 C 12,9 C 22,5 km/h (4 Bft) 100 %
25.10.2017 12:20 14,4 C 14,2 C 14,5 C 88 % 1023,3 hPa 0,0 l/m 6,0 km/h (2 Bft) S-SW 212 10 min 0,000 mm 211 W/m 12,4 C 14,4 C 22,5 km/h (4 Bft) 100 %
25.10.2017 12:30 14,6 C 14,4 C 14,6 C 89 % 1023,3 hPa 0,0 l/m 3,8 km/h (1 Bft) S-SW 208 10 min 0,000 mm 232 W/m 12,8 C 14,6 C 17,7 km/h (3 Bft) 100 %
25.10.2017 12:40 14,8 C 14,6 C 14,8 C 88 % 1023,3 hPa 0,0 l/m 3,1 km/h (1 Bft) S-SW 202 10 min 0,000 mm 171 W/m 12,8 C 14,8 C 14,5 km/h (3 Bft) 100 %
25.10.2017 12:50 14,8 C 14,8 C 14,8 C 87 % 1023,3 hPa 0,0 l/m 4,5 km/h (1 Bft) W-SW 241 0 min 0,000 mm 100 W/m 12,7 C 14,8 C 19,3 km/h (3 Bft) 100 %
25.10.2017 13:00 14,7 C 14,7 C 14,8 C 88 % 1023,3 hPa 0,0 l/m 4,1 km/h (1 Bft) W-SW 242 10 min 0,101 mm 185 W/m 12,7 C 14,7 C 19,3 km/h (3 Bft) 100 %
25.10.2017 13:10 14,8 C 14,7 C 14,8 C 88 % 1023,1 hPa 0,0 l/m 4,2 km/h (1 Bft) S-SW 209 10 min 0,000 mm 158 W/m 12,8 C 14,8 C 16,1 km/h (3 Bft) 100 %
25.10.2017 13:20 14,8 C 14,8 C 14,8 C 88 % 1023,2 hPa 0,0 l/m 6,4 km/h (2 Bft) SW 227 0 min 0,000 mm 95 W/m 12,8 C 14,8 C 17,7 km/h (3 Bft) 100 %
25.10.2017 13:30 14,7 C 14,7 C 14,8 C 88 % 1023,1 hPa 0,0 l/m 1,2 km/h (1 Bft) W 259 10 min 0,000 mm 188 W/m 12,7 C 14,7 C 9,7 km/h (2 Bft) 100 %
25.10.2017 13:40 14,8 C 14,7 C 14,8 C 88 % 1023,2 hPa 0,0 l/m 1,7 km/h (1 Bft) NW 309 10 min 0,000 mm 202 W/m 12,8 C 14,8 C 16,1 km/h (3 Bft) 100 %
25.10.2017 13:50 14,9 C 14,8 C 14,9 C 88 % 1023,0 hPa 0,0 l/m 4,8 km/h (1 Bft) W 276 10 min 0,000 mm 221 W/m 12,9 C 14,9 C 17,7 km/h (3 Bft) 100 %
25.10.2017 14:00 15,1 C 14,9 C 15,1 C 88 % 1022,9 hPa 0,0 l/m 3,3 km/h (1 Bft) W-SW 244 0 min 0,102 mm 132 W/m 13,1 C 15,1 C 11,3 km/h (2 Bft) 100 %
25.10.2017 14:10 15,1 C 15,1 C 15,1 C 87 % 1022,8 hPa 0,0 l/m 5,3 km/h (1 Bft) W-SW 257 0 min 0,000 mm 121 W/m 13,0 C 15,1 C 11,3 km/h (2 Bft) 100 %
25.10.2017 14:20 15,2 C 15,1 C 15,2 C 87 % 1022,8 hPa 0,0 l/m 5,1 km/h (1 Bft) W-SW 242 0 min 0,000 mm 146 W/m 13,0 C 15,2 C 16,1 km/h (3 Bft) 100 %
25.10.2017 14:30 15,1 C 15,1 C 15,2 C 86 % 1022,6 hPa 0,0 l/m 8,1 km/h (2 Bft) S-SW 204 10 min 0,000 mm 176 W/m 12,8 C 14,2 C 24,1 km/h (4 Bft) 100 %
25.10.2017 14:40 15,1 C 15,1 C 15,1 C 86 % 1022,7 hPa 0,0 l/m 9,4 km/h (2 Bft) W-SW 242 10 min 0,000 mm 162 W/m 12,8 C 13,5 C 20,9 km/h (4 Bft) 100 %
25.10.2017 14:50 15,2 C 15,1 C 15,2 C 86 % 1022,5 hPa 0,0 l/m 8,9 km/h (2 Bft) W 261 10 min 0,000 mm 171 W/m 12,9 C 13,9 C 19,3 km/h (3 Bft) 100 %
25.10.2017 15:00 15,3 C 15,2 C 15,3 C 86 % 1022,5 hPa 0,0 l/m 9,4 km/h (2 Bft) W 273 0 min 0,101 mm 149 W/m 13,0 C 13,7 C 25,7 km/h (4 Bft) 99 %
25.10.2017 15:10 15,3 C 15,3 C 15,3 C 86 % 1022,4 hPa 0,0 l/m 9,3 km/h (2 Bft) SW 227 0 min 0,000 mm 121 W/m 13,0 C 13,8 C 22,5 km/h (4 Bft) 100 %
25.10.2017 15:20 15,3 C 15,3 C 15,4 C 86 % 1022,4 hPa 0,0 l/m 9,9 km/h (2 Bft) S-SW 210 0 min 0,000 mm 135 W/m 13,0 C 13,5 C 20,9 km/h (4 Bft) 100 %
25.10.2017 15:30 15,3 C 15,3 C 15,4 C 86 % 1022,4 hPa 0,0 l/m 7,8 km/h (2 Bft) SW 220 0 min 0,000 mm 90 W/m 13,0 C 14,5 C 19,3 km/h (3 Bft) 100 %
25.10.2017 15:40 15,3 C 15,3 C 15,4 C 87 % 1022,4 hPa 0,0 l/m 2,8 km/h (1 Bft) W-SW 254 0 min 0,000 mm 88 W/m 13,1 C 15,3 C 11,3 km/h (2 Bft) 100 %
25.10.2017 15:50 15,3 C 15,3 C 15,4 C 86 % 1022,3 hPa 0,0 l/m 4,7 km/h (1 Bft) W-SW 238 0 min 0,000 mm 76 W/m 13,0 C 15,3 C 16,1 km/h (3 Bft) 99 %
25.10.2017 16:00 15,3 C 15,3 C 15,3 C 87 % 1022,2 hPa 0,0 l/m 3,9 km/h (1 Bft) SW 221 0 min 0,077 mm 60 W/m 13,1 C 15,3 C 20,9 km/h (4 Bft) 100 %
25.10.2017 16:10 15,4 C 15,3 C 15,4 C 87 % 1022,0 hPa 0,0 l/m 1,2 km/h (1 Bft) SW 233 0 min 0,000 mm 107 W/m 13,2 C 15,4 C 9,7 km/h (2 Bft) 100 %
25.10.2017 16:20 15,6 C 15,4 C 15,6 C 87 % 1022,0 hPa 0,0 l/m 1,6 km/h (1 Bft) SW 228 0 min 0,000 mm 102 W/m 13,4 C 15,6 C 12,9 km/h (3 Bft) 100 %
25.10.2017 16:30 15,8 C 15,6 C 15,8 C 86 % 1022,2 hPa 0,0 l/m 3,5 km/h (1 Bft) S-SW 208 0 min 0,000 mm 76 W/m 13,5 C 15,8 C 14,5 km/h (3 Bft) 100 %
25.10.2017 16:40 15,8 C 15,8 C 15,9 C 86 % 1022,4 hPa 0,0 l/m 2,2 km/h (1 Bft) W 271 0 min 0,000 mm 47 W/m 13,5 C 15,8 C 12,9 km/h (3 Bft) 100 %
25.10.2017 16:50 15,8 C 15,8 C 15,9 C 86 % 1022,6 hPa 0,0 l/m 2,5 km/h (1 Bft) W-NW 303 0 min 0,000 mm 25 W/m 13,5 C 15,8 C 11,3 km/h (2 Bft) 100 %
25.10.2017 17:00 15,7 C 15,7 C 15,8 C 87 % 1022,8 hPa 0,0 l/m 2,4 km/h (1 Bft) NW 313 0 min 0,050 mm 23 W/m 13,5 C 15,7 C 9,7 km/h (2 Bft) 100 %
25.10.2017 17:10 15,5 C 15,5 C 15,7 C 87 % 1022,7 hPa 0,0 l/m 2,6 km/h (1 Bft) W-NW 296 0 min 0,000 mm 40 W/m 13,3 C 15,5 C 17,7 km/h (3 Bft) 100 %
25.10.2017 17:20 15,4 C 15,4 C 15,5 C 87 % 1022,7 hPa 0,0 l/m 2,0 km/h (1 Bft) NW 311 0 min 0,000 mm 46 W/m 13,2 C 15,4 C 9,7 km/h (2 Bft) 99 %
25.10.2017 17:30 15,2 C 15,2 C 15,4 C 87 % 1022,8 hPa 0,0 l/m 0,2 km/h (0 Bft) W-SW 252 0 min 0,000 mm 37 W/m 13,0 C 15,2 C 4,8 km/h (1 Bft) 100 %
25.10.2017 17:40 15,1 C 15,1 C 15,2 C 87 % 1022,9 hPa 0,0 l/m 2,2 km/h (1 Bft) W 276 0 min 0,000 mm 26 W/m 13,0 C 15,1 C 9,7 km/h (2 Bft) 100 %
25.10.2017 17:50 14,9 C 14,9 C 15,1 C 88 % 1023,1 hPa 0,0 l/m 1,1 km/h (1 Bft) W 279 0 min 0,000 mm 18 W/m 12,9 C 14,9 C 6,4 km/h (2 Bft) 100 %
25.10.2017 18:00 14,7 C 14,7 C 14,9 C 88 % 1023,2 hPa 0,0 l/m 0,6 km/h (0 Bft) W 267 0 min 0,026 mm 11 W/m 12,7 C 14,7 C 8,0 km/h (2 Bft) 100 %
25.10.2017 18:10 14,6 C 14,5 C 14,7 C 88 % 1023,2 hPa 0,0 l/m 0,1 km/h (0 Bft) W 268 0 min 0,000 mm 0 W/m 12,6 C 14,6 C 3,2 km/h (1 Bft) 100 %
25.10.2017 18:20 14,4 C 14,4 C 14,6 C 89 % 1023,3 hPa 0,0 l/m 0,1 km/h (0 Bft) W-NW 301 0 min 0,000 mm 0 W/m 12,6 C 14,4 C 4,8 km/h (1 Bft) 99 %
25.10.2017 18:30 14,3 C 14,3 C 14,4 C 89 % 1023,2 hPa 0,0 l/m 0,7 km/h (0 Bft) W 277 0 min 0,000 mm 0 W/m 12,5 C 14,3 C 8,0 km/h (2 Bft) 100 %
25.10.2017 18:40 14,3 C 14,3 C 14,3 C 89 % 1023,2 hPa 0,0 l/m 0,7 km/h (0 Bft) W-NW 302 0 min 0,000 mm 0 W/m 12,5 C 14,3 C 6,4 km/h (2 Bft) 100 %
25.10.2017 18:50 14,2 C 14,2 C 14,3 C 89 % 1023,3 hPa 0,0 l/m 0,0 km/h (0 Bft) W-NW 300 0 min 0,000 mm 0 W/m 12,4 C 14,2 C 1,6 km/h (1 Bft) 100 %
25.10.2017 19:00 14,1 C 14,1 C 14,2 C 89 % 1023,3 hPa 0,0 l/m 1,5 km/h (1 Bft) W 260 0 min 0,000 mm 0 W/m 12,3 C 14,1 C 9,7 km/h (2 Bft) 100 %
25.10.2017 19:10 13,9 C 13,9 C 14,1 C 89 % 1023,4 hPa 0,0 l/m 1,4 km/h (1 Bft) SW 217 0 min 0,000 mm 0 W/m 12,1 C 13,9 C 8,0 km/h (2 Bft) 100 %
25.10.2017 19:20 13,9 C 13,9 C 13,9 C 89 % 1023,6 hPa 0,0 l/m 0,9 km/h (0 Bft) SW 225 0 min 0,000 mm 0 W/m 12,1 C 13,9 C 8,0 km/h (2 Bft) 100 %
25.10.2017 19:30 13,8 C 13,8 C 13,9 C 89 % 1023,7 hPa 0,0 l/m 0,0 km/h (0 Bft) SW 225 0 min 0,000 mm 0 W/m 12,0 C 13,8 C 1,6 km/h (1 Bft) 100 %
25.10.2017 19:40 13,7 C 13,7 C 13,8 C 89 % 1023,8 hPa 0,0 l/m 0,0 km/h (0 Bft) SW 227 0 min 0,000 mm 0 W/m 11,9 C 13,7 C 0,0 km/h (0 Bft) 100 %
25.10.2017 19:50 13,4 C 13,4 C 13,7 C 89 % 1023,8 hPa 0,0 l/m 0,0 km/h (0 Bft) W 277 0 min 0,000 mm 0 W/m 11,6 C 13,4 C 1,6 km/h (1 Bft) 99 %
25.10.2017 20:00 13,3 C 13,3 C 13,4 C 89 % 1023,9 hPa 0,0 l/m 0,0 km/h (0 Bft) W 277 0 min 0,000 mm 0 W/m 11,5 C 13,3 C 0,0 km/h (0 Bft) 100 %
25.10.2017 20:10 13,1 C 13,1 C 13,3 C 89 % 1023,9 hPa 0,0 l/m 0,0 km/h (0 Bft) W 277 0 min 0,000 mm 0 W/m 11,3 C 13,1 C 0,0 km/h (0 Bft) 100 %
25.10.2017 20:20 12,8 C 12,8 C 13,1 C 89 % 1023,8 hPa 0,0 l/m 0,0 km/h (0 Bft) W 277 0 min 0,000 mm 0 W/m 11,0 C 12,8 C 0,0 km/h (0 Bft) 100 %
25.10.2017 20:30 12,6 C 12,6 C 12,8 C 89 % 1023,9 hPa 0,0 l/m 0,0 km/h (0 Bft) W 277 0 min 0,000 mm 0 W/m 10,8 C 12,6 C 0,0 km/h (0 Bft) 100 %
25.10.2017 20:40 12,4 C 12,4 C 12,6 C 90 % 1023,9 hPa 0,0 l/m 0,0 km/h (0 Bft) W 277 0 min 0,000 mm 0 W/m 10,8 C 12,4 C 0,0 km/h (0 Bft) 100 %
25.10.2017 20:50 12,3 C 12,3 C 12,4 C 90 % 1024,1 hPa 0,0 l/m 0,0 km/h (0 Bft) W 277 0 min 0,000 mm 0 W/m 10,7 C 12,3 C 0,0 km/h (0 Bft) 100 %
25.10.2017 21:00 12,2 C 12,2 C 12,3 C 90 % 1024,2 hPa 0,0 l/m 0,0 km/h (0 Bft) W 277 0 min 0,000 mm 0 W/m 10,6 C 12,2 C 0,0 km/h (0 Bft) 100 %
25.10.2017 21:10 12,1 C 12,1 C 12,2 C 90 % 1024,2 hPa 0,0 l/m 0,0 km/h (0 Bft) N 0 0 min 0,000 mm 0 W/m 10,5 C 12,1 C 0,0 km/h (0 Bft) 100 %
25.10.2017 21:20 12,0 C 12,0 C 12,1 C 90 % 1024,2 hPa 0,0 l/m 0,0 km/h (0 Bft) N 0 0 min 0,000 mm 0 W/m 10,4 C 12,0 C 0,0 km/h (0 Bft) 100 %
25.10.2017 21:30 11,9 C 11,9 C 12,0 C 90 % 1024,5 hPa 0,0 l/m 0,0 km/h (0 Bft) N 0 0 min 0,000 mm 0 W/m 10,3 C 11,9 C 0,0 km/h (0 Bft) 100 %
25.10.2017 21:40 11,8 C 11,8 C 11,9 C 90 % 1024,5 hPa 0,0 l/m 0,0 km/h (0 Bft) N 0 0 min 0,000 mm 0 W/m 10,2 C 11,8 C 0,0 km/h (0 Bft) 100 %
25.10.2017 21:50 11,6 C 11,6 C 11,8 C 90 % 1024,6 hPa 0,0 l/m 0,0 km/h (0 Bft) N 0 0 min 0,000 mm 0 W/m 10,0 C 11,6 C 0,0 km/h (0 Bft) 100 %
25.10.2017 22:00 11,5 C 11,4 C 11,6 C 90 % 1024,6 hPa 0,0 l/m 0,0 km/h (0 Bft) N 0 0 min 0,000 mm 0 W/m 9,9 C 11,5 C 0,0 km/h (0 Bft) 100 %
25.10.2017 22:10 11,4 C 11,4 C 11,4 C 90 % 1024,6 hPa 0,0 l/m 0,0 km/h (0 Bft) N 0 0 min 0,000 mm 0 W/m 9,8 C 11,4 C 0,0 km/h (0 Bft) 100 %
25.10.2017 22:20 11,3 C 11,3 C 11,4 C 90 % 1024,6 hPa 0,0 l/m 0,0 km/h (0 Bft) N 0 0 min 0,000 mm 0 W/m 9,7 C 11,3 C 0,0 km/h (0 Bft) 100 %
25.10.2017 22:30 11,3 C 11,2 C 11,3 C 90 % 1024,9 hPa 0,0 l/m 0,0 km/h (0 Bft) N 0 0 min 0,000 mm 0 W/m 9,7 C 11,3 C 0,0 km/h (0 Bft) 100 %
25.10.2017 22:40 11,2 C 11,2 C 11,3 C 89 % 1024,9 hPa 0,0 l/m 0,0 km/h (0 Bft) N 0 0 min 0,000 mm 0 W/m 9,5 C 11,2 C 0,0 km/h (0 Bft) 99 %
25.10.2017 22:50 11,1 C 11,1 C 11,2 C 90 % 1024,8 hPa 0,0 l/m 0,0 km/h (0 Bft) N 0 0 min 0,000 mm 0 W/m 9,5 C 11,1 C 0,0 km/h (0 Bft) 100 %
25.10.2017 23:00 10,9 C 10,9 C 11,0 C 90 % 1024,9 hPa 0,0 l/m 0,0 km/h (0 Bft) N 0 0 min 0,000 mm 0 W/m 9,3 C 10,9 C 0,0 km/h (0 Bft) 100 %
25.10.2017 23:10 10,8 C 10,8 C 10,9 C 90 % 1024,9 hPa 0,0 l/m 0,0 km/h (0 Bft) N 0 0 min 0,000 mm 0 W/m 9,2 C 10,8 C 0,0 km/h (0 Bft) 100 %
25.10.2017 23:20 10,8 C 10,7 C 10,8 C 90 % 1024,9 hPa 0,0 l/m 0,0 km/h (0 Bft) N 0 0 min 0,000 mm 0 W/m 9,2 C 10,8 C 0,0 km/h (0 Bft) 100 %
25.10.2017 23:30 10,7 C 10,7 C 10,8 C 90 % 1025,0 hPa 0,0 l/m 0,0 km/h (0 Bft) N 0 0 min 0,000 mm 0 W/m 9,1 C 10,7 C 0,0 km/h (0 Bft) 100 %
25.10.2017 23:40 10,6 C 10,6 C 10,7 C 90 % 1025,2 hPa 0,0 l/m 0,0 km/h (0 Bft) N 0 0 min 0,000 mm 0 W/m 9,0 C 10,6 C 0,0 km/h (0 Bft) 100 %
25.10.2017 23:50 10,6 C 10,6 C 10,7 C 90 % 1025,1 hPa 0,0 l/m 0,0 km/h (0 Bft) W 270 0 min 0,000 mm 0 W/m 9,0 C 10,6 C 1,6 km/h (1 Bft) 100 %
_ Min-Zeit 23:40 23:40 23:40 14:30 16:10 - 07:20 - - - - - 23:40 23:40 07:30 08:20
Minimum _ 10,6 C 10,6 C 10,7 C 86 % 1022,0 hPa - 0,0 km/h (0 Bft) - - - - - 9,0 C 10,6 C 0,0 km/h (0 Bft) 90 %
_ Max-Zeit 16:40 16:40 16:40 07:00 23:40 04:20 15:20 - - 10:50 12:10 11:50 17:00 16:30 15:00 00:00
Maximum _ 15,9 C 15,8 C 15,9 C 91 % 1025,2 hPa 0,2 l/m 9,9 km/h
S-SW (2 Bft)
- - 10 min 0,127 mm 304 W/m 13,5 C 15,8 C 25,7 km/h
SW (4 Bft)
100 %
Durchschnitt _ 13,0 C 12,9 C 13,0 C 89 % 1023,4 hPa #0,4 l/m 2,6 km/h (1 Bft) S-SW - #3:10 h #0,686 mm 113 W/m 11,3 C 12,9 C 8,7 km/h (2 Bft) 100 %
PRIVATE WETTERSTATION BILLIGHEIM-ALLFELD - www.neckar-odenwald-wetter.de - Holger Sonntag